TimeEST,TemperatureF,Dew PointF,Humidity,Sea Level PressureIn,VisibilityMPH,Wind Direction,Wind SpeedMPH,Gust SpeedMPH,PrecipitationIn,Events,Conditions,WindDirDegrees,DateUTC
12:46 AM,62.6,60.8,94,30.22,9.0,South,11.5,18.4,N/A,,Overcast,170,2012-11-13 05:46:00
12:53 AM,62.1,60.1,93,30.22,9.0,South,9.2,19.6,N/A,,Overcast,180,2012-11-13 05:53:00
1:35 AM,62.6,59.0,88,30.21,10.0,South,12.7,20.7,N/A,,Overcast,170,2012-11-13 06:35:00
1:53 AM,62.1,57.9,86,30.21,10.0,South,11.5,18.4,N/A,,Overcast,180,2012-11-13 06:53:00
2:27 AM,60.8,57.2,88,30.20,10.0,South,11.5,19.6,N/A,,Mostly Cloudy,170,2012-11-13 07:27:00
2:53 AM,61.0,57.9,90,30.19,10.0,South,11.5,19.6,N/A,,Partly Cloudy,170,2012-11-13 07:53:00
3:29 AM,60.8,57.2,88,30.18,10.0,South,9.2,17.3,N/A,,Mostly Cloudy,170,2012-11-13 08:29:00
3:53 AM,62.1,59.0,90,30.18,10.0,South,10.4,17.3,N/A,,Overcast,180,2012-11-13 08:53:00
4:40 AM,60.8,59.0,94,30.17,9.0,South,9.2,-,N/A,,Overcast,180,2012-11-13 09:40:00
4:53 AM,61.0,59.0,93,30.17,9.0,South,10.4,16.1,N/A,,Overcast,180,2012-11-13 09:53:00
5:10 AM,62.6,59.0,88,30.17,10.0,South,10.4,17.3,N/A,,Overcast,190,2012-11-13 10:10:00
5:26 AM,62.6,59.0,88,30.17,10.0,South,6.9,16.1,N/A,,Overcast,190,2012-11-13 10:26:00
5:53 AM,62.1,59.0,90,30.16,10.0,South,9.2,16.1,N/A,,Overcast,180,2012-11-13 10:53:00
6:48 AM,62.6,59.0,88,30.18,10.0,SW,11.5,19.6,N/A,,Overcast,230,2012-11-13 11:48:00
7:01 AM,60.8,57.2,88,30.18,10.0,West,10.4,20.7,N/A,,Overcast,260,2012-11-13 12:01:00
7:15 AM,60.8,57.2,88,30.19,9.0,WNW,11.5,-,0.00,Rain,Light Rain,290,2012-11-13 12:15:00
7:29 AM,57.2,53.6,88,30.20,7.0,NW,11.5,-,0.01,Rain,Light Rain,310,2012-11-13 12:29:00
7:53 AM,55.9,52.0,87,30.21,9.0,NW,11.5,-,0.01,Rain,Light Rain,310,2012-11-13 12:53:00
8:10 AM,55.4,51.8,88,30.22,10.0,NW,10.4,-,0.01,,Overcast,320,2012-11-13 13:10:00
8:41 AM,53.6,48.2,82,30.25,2.0,NW,18.4,25.3,0.01,Rain,Light Rain,320,2012-11-13 13:41:00
8:48 AM,51.8,48.2,88,30.25,2.0,NNW,16.1,24.2,0.02,Rain,Light Rain,330,2012-11-13 13:48:00
8:53 AM,52.0,48.9,89,30.25,2.0,NNW,18.4,26.5,0.02,Rain,Light Rain,340,2012-11-13 13:53:00
8:59 AM,51.8,48.2,88,30.25,10.0,NNW,19.6,28.8,0.00,Rain,Light Rain,330,2012-11-13 13:59:00
9:04 AM,51.8,48.2,88,30.25,10.0,NNW,16.1,28.8,0.00,,Overcast,340,2012-11-13 14:04:00
9:12 AM,51.8,48.2,88,30.26,10.0,NNW,15.0,23.0,0.00,,Overcast,340,2012-11-13 14:12:00
9:53 AM,53.1,46.0,77,30.27,10.0,NNW,13.8,19.6,0.00,,Overcast,340,2012-11-13 14:53:00
10:53 AM,52.0,44.1,74,30.26,10.0,NNW,9.2,-,N/A,,Overcast,340,2012-11-13 15:53:00
11:53 AM,51.1,43.0,74,30.26,10.0,NNW,12.7,-,N/A,,Overcast,330,2012-11-13 16:53:00
12:53 PM,48.9,43.0,80,30.26,9.0,NNW,11.5,-,0.02,Rain,Light Rain,340,2012-11-13 17:53:00
1:53 PM,46.0,43.0,89,30.30,4.0,NNW,11.5,-,0.02,Rain,Light Rain,330,2012-11-13 18:53:00
2:53 PM,45.0,41.0,86,30.30,10.0,North,9.2,-,0.05,Rain,Light Rain,350,2012-11-13 19:53:00
3:53 PM,44.1,39.0,82,30.32,10.0,North,12.7,18.4,0.01,Rain,Light Rain,350,2012-11-13 20:53:00
4:53 PM,44.1,39.0,82,30.34,10.0,North,5.8,-,0.00,Rain,Light Rain,350,2012-11-13 21:53:00
5:53 PM,45.0,37.0,74,30.35,10.0,North,6.9,-,0.00,,Overcast,350,2012-11-13 22:53:00
6:53 PM,45.0,35.1,68,30.37,10.0,North,5.8,-,N/A,,Overcast,350,2012-11-13 23:53:00
7:53 PM,46.0,32.0,58,30.39,10.0,NNW,10.4,-,N/A,,Overcast,340,2012-11-14 00:53:00
8:53 PM,45.0,30.0,56,30.41,10.0,North,12.7,19.6,N/A,,Overcast,360,2012-11-14 01:53:00
9:53 PM,45.0,30.0,56,30.42,10.0,North,11.5,-,N/A,,Overcast,350,2012-11-14 02:53:00
10:53 PM,45.0,30.0,56,30.43,10.0,North,13.8,20.7,N/A,,Overcast,10,2012-11-14 03:53:00
11:53 PM,44.1,28.0,53,30.44,10.0,North,11.5,23.0,N/A,,Overcast,10,2012-11-14 04:53:00